Year,Month,Day,Hour,Minute,Value (Times are PST for temperature in C)
2017,05,04,00,01,11.60
2017,05,04,00,02,11.60
2017,05,04,00,03,11.60
2017,05,04,00,04,11.60
2017,05,04,00,06,11.40
2017,05,04,00,07,11.40
2017,05,04,00,09,11.40
2017,05,04,00,11,11.40
2017,05,04,00,12,11.40
2017,05,04,00,13,11.40
2017,05,04,00,14,11.60
2017,05,04,00,16,11.60
2017,05,04,00,17,11.60
2017,05,04,00,18,11.60
2017,05,04,00,19,11.40
2017,05,04,00,21,11.40
2017,05,04,00,22,11.40
2017,05,04,00,23,11.40
2017,05,04,00,24,11.40
2017,05,04,00,26,11.30
2017,05,04,00,27,11.30
2017,05,04,00,28,11.30
2017,05,04,00,29,11.30
2017,05,04,00,31,11.20
2017,05,04,00,32,11.20
2017,05,04,00,33,11.30
2017,05,04,00,34,11.30
2017,05,04,00,36,11.30
2017,05,04,00,37,11.40
2017,05,04,00,38,11.40
2017,05,04,00,39,11.40
2017,05,04,00,41,11.40
2017,05,04,00,42,11.40
2017,05,04,00,43,11.60
2017,05,04,00,44,11.60
2017,05,04,00,46,11.60
2017,05,04,00,47,11.60
2017,05,04,00,48,11.60
2017,05,04,00,49,11.60
2017,05,04,00,51,11.60
2017,05,04,00,52,11.60
2017,05,04,00,53,11.40
2017,05,04,00,54,11.40
2017,05,04,00,56,11.40
2017,05,04,00,57,11.40
2017,05,04,00,58,11.40
2017,05,04,00,59,11.40
2017,05,04,01,01,11.40
2017,05,04,01,02,11.40
2017,05,04,01,03,11.40
2017,05,04,01,04,11.40
2017,05,04,01,06,11.40
2017,05,04,01,07,11.40
2017,05,04,01,08,11.40
2017,05,04,01,09,11.40
2017,05,04,01,10,11.40
2017,05,04,01,11,11.40
2017,05,04,01,12,11.40
2017,05,04,01,13,11.40
2017,05,04,01,14,11.60
2017,05,04,01,15,11.60
2017,05,04,01,16,11.60
2017,05,04,01,17,11.60
2017,05,04,01,18,11.40
2017,05,04,01,19,11.40
2017,05,04,01,20,11.40
2017,05,04,01,21,11.40
2017,05,04,01,22,11.40
2017,05,04,01,23,11.40
2017,05,04,01,24,11.40
2017,05,04,01,25,11.40
2017,05,04,01,26,11.40
2017,05,04,01,27,11.40
2017,05,04,01,28,11.40
2017,05,04,01,29,11.40
2017,05,04,01,30,11.40
2017,05,04,01,31,11.40
2017,05,04,01,32,11.40
2017,05,04,01,33,11.40
2017,05,04,01,34,11.40
2017,05,04,01,35,11.40
2017,05,04,01,36,11.40
2017,05,04,01,37,11.40
2017,05,04,01,38,11.40
2017,05,04,01,39,11.40
2017,05,04,01,40,11.40
2017,05,04,01,41,11.40
2017,05,04,01,42,11.40
2017,05,04,01,43,11.40
2017,05,04,01,44,11.40
2017,05,04,01,45,11.40
2017,05,04,01,46,11.40
2017,05,04,01,47,11.40
2017,05,04,01,48,11.40
2017,05,04,01,49,11.40
2017,05,04,01,50,11.40
2017,05,04,01,51,11.40
2017,05,04,01,52,11.40
2017,05,04,01,53,11.40
2017,05,04,01,54,11.40
2017,05,04,01,55,11.40
2017,05,04,01,56,11.40
2017,05,04,01,57,11.40
2017,05,04,01,58,11.40
2017,05,04,01,59,11.40
2017,05,04,02,00,11.40
2017,05,04,02,01,11.40
2017,05,04,02,02,11.40
2017,05,04,02,03,11.40
2017,05,04,02,04,11.40
2017,05,04,02,05,11.40
2017,05,04,02,06,11.40
2017,05,04,02,07,11.40
2017,05,04,02,08,11.60
2017,05,04,02,09,11.60
2017,05,04,02,10,11.60
2017,05,04,02,11,11.60
2017,05,04,02,12,11.40
2017,05,04,02,13,11.40
2017,05,04,02,14,11.40
2017,05,04,02,15,11.40
2017,05,04,02,16,11.40
2017,05,04,02,17,11.40
2017,05,04,02,18,11.40
2017,05,04,02,19,11.40
2017,05,04,02,20,11.40
2017,05,04,02,21,11.40
2017,05,04,02,22,11.40
2017,05,04,02,23,11.40
2017,05,04,02,24,11.40
2017,05,04,02,25,11.40
2017,05,04,02,27,11.40
2017,05,04,02,28,11.40
2017,05,04,02,29,11.40
2017,05,04,02,31,11.40
2017,05,04,02,32,11.40
2017,05,04,02,33,11.40
2017,05,04,02,34,11.60
2017,05,04,02,36,11.60
2017,05,04,02,37,11.60
2017,05,04,02,38,11.60
2017,05,04,02,39,11.60
2017,05,04,02,41,11.60
2017,05,04,02,42,11.60
2017,05,04,02,43,11.70
2017,05,04,02,44,11.70
2017,05,04,02,46,11.70
2017,05,04,02,47,11.70
2017,05,04,02,48,11.70
2017,05,04,02,49,11.70
2017,05,04,02,51,11.60
2017,05,04,02,52,11.60
2017,05,04,02,53,11.60
2017,05,04,02,54,11.60
2017,05,04,02,56,11.60
2017,05,04,02,57,11.60
2017,05,04,02,58,11.60
2017,05,04,02,59,11.60
2017,05,04,03,01,11.60
2017,05,04,03,02,11.60
2017,05,04,03,03,11.60
2017,05,04,03,04,11.40
2017,05,04,03,06,11.40
2017,05,04,03,07,11.40
2017,05,04,03,08,11.40
2017,05,04,03,09,11.40
2017,05,04,03,11,11.40
2017,05,04,03,12,11.40
2017,05,04,03,13,11.40
2017,05,04,03,14,11.30
2017,05,04,03,16,11.30
2017,05,04,03,17,11.40
2017,05,04,03,18,11.40
2017,05,04,03,19,11.40
2017,05,04,03,21,11.40
2017,05,04,03,22,11.40
2017,05,04,03,23,11.40
2017,05,04,03,24,11.40
2017,05,04,03,26,11.40
2017,05,04,03,27,11.40
2017,05,04,03,28,11.40
2017,05,04,03,29,11.40
2017,05,04,03,31,11.40
2017,05,04,03,32,11.40
2017,05,04,03,33,11.40
2017,05,04,03,34,11.40
2017,05,04,03,36,11.40
2017,05,04,03,37,11.40
2017,05,04,03,38,11.40
2017,05,04,03,39,11.40
2017,05,04,03,41,11.40
2017,05,04,03,42,11.40
2017,05,04,03,43,11.40
2017,05,04,03,44,11.40
2017,05,04,03,46,11.30
2017,05,04,03,47,11.30
2017,05,04,03,48,11.30
2017,05,04,03,49,11.30
2017,05,04,03,50,11.20
2017,05,04,03,51,11.20
2017,05,04,03,52,11.20
2017,05,04,03,53,11.20
2017,05,04,03,54,11.20
2017,05,04,03,55,11.20
2017,05,04,03,56,11.20
2017,05,04,03,57,11.10
2017,05,04,03,58,11.10
2017,05,04,03,59,11.10
2017,05,04,04,00,11.10
2017,05,04,04,01,11.10
2017,05,04,04,02,11.10
2017,05,04,04,03,11.10
2017,05,04,04,04,11.10
2017,05,04,04,05,11.10
2017,05,04,04,06,11.10
2017,05,04,04,07,11.10
2017,05,04,04,08,10.90
2017,05,04,04,09,10.90
2017,05,04,04,10,10.90
2017,05,04,04,11,10.90
2017,05,04,04,12,10.90
2017,05,04,04,13,10.90
2017,05,04,04,14,10.90
2017,05,04,04,15,10.90
2017,05,04,04,16,10.90
2017,05,04,04,17,10.90
2017,05,04,04,18,10.90
2017,05,04,04,19,11.10
2017,05,04,04,20,11.10
2017,05,04,04,21,11.10
2017,05,04,04,22,11.10
2017,05,04,04,23,11.10
2017,05,04,04,24,11.10
2017,05,04,04,25,11.10
2017,05,04,04,26,11.10
2017,05,04,04,27,11.10
2017,05,04,04,28,11.10
2017,05,04,04,29,11.10
2017,05,04,04,30,11.10
2017,05,04,04,31,11.10
2017,05,04,04,32,11.10
2017,05,04,04,33,11.10
2017,05,04,04,34,11.10
2017,05,04,04,35,11.10
2017,05,04,04,36,11.10
2017,05,04,04,37,11.10
2017,05,04,04,38,11.20
2017,05,04,04,39,11.20
2017,05,04,04,40,11.20
2017,05,04,04,41,11.20
2017,05,04,04,42,11.30
2017,05,04,04,43,11.30
2017,05,04,04,44,11.30
2017,05,04,04,45,11.30
2017,05,04,04,46,11.20
2017,05,04,04,47,11.20
2017,05,04,04,48,11.20
2017,05,04,04,49,11.20
2017,05,04,04,50,11.20
2017,05,04,04,51,11.20
2017,05,04,04,52,11.20
2017,05,04,04,53,11.30
2017,05,04,04,54,11.30
2017,05,04,04,55,11.30
2017,05,04,04,56,11.30
2017,05,04,04,57,11.30
2017,05,04,04,58,11.30
2017,05,04,04,59,11.30
2017,05,04,05,00,11.30
2017,05,04,05,01,11.30
2017,05,04,05,02,11.20
2017,05,04,05,03,11.20
2017,05,04,05,04,11.20
2017,05,04,05,06,11.20
2017,05,04,05,07,11.10
2017,05,04,05,08,11.10
2017,05,04,05,09,11.10
2017,05,04,05,11,11.10
2017,05,04,05,12,11.10
2017,05,04,05,13,10.90
2017,05,04,05,14,10.90
2017,05,04,05,16,10.90
2017,05,04,05,17,10.90
2017,05,04,05,18,10.80
2017,05,04,05,19,10.80
2017,05,04,05,21,10.70
2017,05,04,05,22,10.60
2017,05,04,05,23,10.60
2017,05,04,05,24,10.60
2017,05,04,05,26,10.60
2017,05,04,05,27,10.60
2017,05,04,05,28,10.60
2017,05,04,05,29,10.60
2017,05,04,05,31,10.60
2017,05,04,05,32,10.60
2017,05,04,05,33,10.60
2017,05,04,05,34,10.60
2017,05,04,05,36,10.60
2017,05,04,05,37,10.60
2017,05,04,05,38,10.60
2017,05,04,05,39,10.60
2017,05,04,05,41,10.60
2017,05,04,05,42,10.70
2017,05,04,05,43,10.70
2017,05,04,05,44,10.70
2017,05,04,05,46,10.80
2017,05,04,05,47,10.80
2017,05,04,05,48,10.90
2017,05,04,05,49,10.90
2017,05,04,05,51,10.90
2017,05,04,05,52,10.90
2017,05,04,05,53,10.90
2017,05,04,05,54,10.90
2017,05,04,05,56,10.90
2017,05,04,05,57,10.90
2017,05,04,05,58,10.90
2017,05,04,05,59,10.90
2017,05,04,06,01,10.90
2017,05,04,06,02,10.90
2017,05,04,06,03,10.90
2017,05,04,06,04,10.90
2017,05,04,06,06,10.90
2017,05,04,06,07,10.90
2017,05,04,06,08,10.90
2017,05,04,06,09,10.90
2017,05,04,06,11,10.90
2017,05,04,06,12,10.90
2017,05,04,06,13,10.90
2017,05,04,06,14,10.90
2017,05,04,06,16,10.80
2017,05,04,06,17,10.80
2017,05,04,06,18,10.80
2017,05,04,06,19,10.80
2017,05,04,06,21,10.80
2017,05,04,06,22,10.80
2017,05,04,06,23,10.80
2017,05,04,06,24,10.80
2017,05,04,06,25,10.80
2017,05,04,06,26,10.80
2017,05,04,06,27,10.70
2017,05,04,06,28,10.70
2017,05,04,06,29,10.70
2017,05,04,06,30,10.60
2017,05,04,06,31,10.60
2017,05,04,06,32,10.60
2017,05,04,06,33,10.60
2017,05,04,06,34,10.60
2017,05,04,06,35,10.60
2017,05,04,06,36,10.60
2017,05,04,06,37,10.60
2017,05,04,06,38,10.60
2017,05,04,06,39,10.60
2017,05,04,06,40,10.40
2017,05,04,06,41,10.40
2017,05,04,06,42,10.40
2017,05,04,06,43,10.40
2017,05,04,06,44,10.40
2017,05,04,06,45,10.40
2017,05,04,06,46,10.40
2017,05,04,06,47,10.40
2017,05,04,06,48,10.40
2017,05,04,06,49,10.40
2017,05,04,06,50,10.60
2017,05,04,06,51,10.60
2017,05,04,06,52,10.60
2017,05,04,06,53,10.60
2017,05,04,06,54,10.60
2017,05,04,06,55,10.60
2017,05,04,06,56,10.60
2017,05,04,06,57,10.60
2017,05,04,06,58,10.60
2017,05,04,06,59,10.60
2017,05,04,07,00,10.60
2017,05,04,07,01,10.40
2017,05,04,07,02,10.40
2017,05,04,07,03,10.40
2017,05,04,07,04,10.40
2017,05,04,07,05,10.60
2017,05,04,07,06,10.60
2017,05,04,07,07,10.60
2017,05,04,07,08,10.60
2017,05,04,07,09,10.60
2017,05,04,07,10,10.60
2017,05,04,07,11,10.60
2017,05,04,07,12,10.60
2017,05,04,07,13,10.60
2017,05,04,07,14,10.60
2017,05,04,07,15,10.60
2017,05,04,07,16,10.60
2017,05,04,07,17,10.60
2017,05,04,07,18,10.60
2017,05,04,07,19,10.70
2017,05,04,07,20,10.70
2017,05,04,07,21,10.70
2017,05,04,07,22,10.80
2017,05,04,07,23,10.80
2017,05,04,07,24,10.90
2017,05,04,07,25,10.90
2017,05,04,07,26,10.90
2017,05,04,07,27,10.90
2017,05,04,07,28,11.10
2017,05,04,07,29,11.10
2017,05,04,07,30,11.10
2017,05,04,07,31,11.10
2017,05,04,07,32,11.10
2017,05,04,07,33,11.10
2017,05,04,07,34,10.90
2017,05,04,07,35,10.90
2017,05,04,07,36,10.90
2017,05,04,07,37,10.90
2017,05,04,07,38,10.90
2017,05,04,07,39,10.80
2017,05,04,07,41,10.70
2017,05,04,07,43,10.60
2017,05,04,07,44,10.60
2017,05,04,07,46,10.60
2017,05,04,07,47,10.60
2017,05,04,07,48,10.60
2017,05,04,07,49,10.60
2017,05,04,07,51,10.60
2017,05,04,07,52,10.60
2017,05,04,07,53,10.70
2017,05,04,07,54,10.80
2017,05,04,07,56,10.90
2017,05,04,07,57,11.10
2017,05,04,07,58,11.20
2017,05,04,07,59,11.20
2017,05,04,08,01,11.40
2017,05,04,08,02,11.60
2017,05,04,08,03,11.60
2017,05,04,08,04,11.60
2017,05,04,08,06,11.80
2017,05,04,08,07,11.80
2017,05,04,08,08,11.80
2017,05,04,08,09,11.80
2017,05,04,08,11,11.90
2017,05,04,08,12,11.90
2017,05,04,08,13,11.90
2017,05,04,08,14,12.00
2017,05,04,08,16,12.10
2017,05,04,08,17,12.10
2017,05,04,08,18,12.20
2017,05,04,08,19,12.20
2017,05,04,08,21,12.30
2017,05,04,08,22,12.30
2017,05,04,08,23,12.30
2017,05,04,08,24,12.30
2017,05,04,08,26,12.40
2017,05,04,08,27,12.40
2017,05,04,08,28,12.40
2017,05,04,08,29,12.40
2017,05,04,08,31,12.50
2017,05,04,08,32,12.50
2017,05,04,08,33,12.50
2017,05,04,08,34,12.60
2017,05,04,08,36,12.60
2017,05,04,08,37,12.70
2017,05,04,08,38,12.70
2017,05,04,08,39,12.70
2017,05,04,08,41,12.80
2017,05,04,08,42,12.80
2017,05,04,08,43,12.80
2017,05,04,08,44,12.70
2017,05,04,08,46,12.70
2017,05,04,08,47,12.70
2017,05,04,08,48,12.70
2017,05,04,08,49,12.70
2017,05,04,08,51,12.60
2017,05,04,08,52,12.60
2017,05,04,08,53,12.60
2017,05,04,08,54,12.60
2017,05,04,08,55,12.60
2017,05,04,08,56,12.50
2017,05,04,08,57,12.50
2017,05,04,08,58,12.50
2017,05,04,08,59,12.40
2017,05,04,09,00,12.40
2017,05,04,09,01,12.40
2017,05,04,09,02,12.50
2017,05,04,09,03,12.60
2017,05,04,09,04,12.60
2017,05,04,09,05,12.70
2017,05,04,09,06,12.70
2017,05,04,09,07,12.80
2017,05,04,09,08,12.80
2017,05,04,09,09,12.80
2017,05,04,09,10,12.80
2017,05,04,09,11,12.90
2017,05,04,09,12,12.90
2017,05,04,09,13,13.00
2017,05,04,09,14,13.00
2017,05,04,09,15,13.00
2017,05,04,09,16,13.10
2017,05,04,09,17,13.20
2017,05,04,09,18,13.20
2017,05,04,09,19,13.30
2017,05,04,09,20,13.30
2017,05,04,09,21,13.30
2017,05,04,09,22,13.30
2017,05,04,09,23,13.30
2017,05,04,09,24,13.30
2017,05,04,09,25,13.40
2017,05,04,09,26,13.30
2017,05,04,09,27,13.30
2017,05,04,09,28,13.30
2017,05,04,09,29,13.30
2017,05,04,09,30,13.30
2017,05,04,09,31,13.30
2017,05,04,09,32,13.30
2017,05,04,09,33,13.30
2017,05,04,09,34,13.30
2017,05,04,09,35,13.30
2017,05,04,09,36,13.30
2017,05,04,09,37,13.30
2017,05,04,09,38,13.30
2017,05,04,09,39,13.30
2017,05,04,09,40,13.30
2017,05,04,09,41,13.30
2017,05,04,09,42,13.30
2017,05,04,09,43,13.30
2017,05,04,09,44,13.30
2017,05,04,09,45,13.30
2017,05,04,09,46,13.40
2017,05,04,09,47,13.50
2017,05,04,09,48,13.50
2017,05,04,09,49,13.50
2017,05,04,09,50,13.50
2017,05,04,09,51,13.60
2017,05,04,09,52,13.60
2017,05,04,09,53,13.60
2017,05,04,09,54,13.60
2017,05,04,09,55,13.70
2017,05,04,09,56,13.70
2017,05,04,09,57,13.70
2017,05,04,09,58,13.70
2017,05,04,09,59,13.70
2017,05,04,10,00,13.80
2017,05,04,10,01,13.80
2017,05,04,10,02,13.80
2017,05,04,10,03,13.90
2017,05,04,10,04,13.90
2017,05,04,10,05,13.90
2017,05,04,10,06,13.90
2017,05,04,10,07,13.90
2017,05,04,10,08,14.00
2017,05,04,10,09,14.00
2017,05,04,10,10,14.10
2017,05,04,10,11,14.10
2017,05,04,10,12,14.20
2017,05,04,10,13,14.20
2017,05,04,10,14,14.20
2017,05,04,10,15,14.20
2017,05,04,10,17,14.20
2017,05,04,10,18,14.20
2017,05,04,10,19,14.20
2017,05,04,10,21,14.20
2017,05,04,10,22,14.20
2017,05,04,10,23,14.30
2017,05,04,10,24,14.30
2017,05,04,10,26,14.40
2017,05,04,10,27,14.40
2017,05,04,10,28,14.40
2017,05,04,10,29,14.40
2017,05,04,10,31,14.50
2017,05,04,10,32,14.50
2017,05,04,10,33,14.50
2017,05,04,10,34,14.50
2017,05,04,10,36,14.50
2017,05,04,10,37,14.50
2017,05,04,10,38,14.50
2017,05,04,10,39,14.50
2017,05,04,10,41,14.60
2017,05,04,10,42,14.60
2017,05,04,10,43,14.60
2017,05,04,10,44,14.70
2017,05,04,10,46,14.70
2017,05,04,10,47,14.80
2017,05,04,10,48,14.80
2017,05,04,10,49,14.80
2017,05,04,10,51,14.80
2017,05,04,10,52,14.80
2017,05,04,10,53,14.80
2017,05,04,10,54,14.90
2017,05,04,10,56,14.90
2017,05,04,10,57,15.00
2017,05,04,10,58,15.00
2017,05,04,10,59,15.00
2017,05,04,11,01,15.10
2017,05,04,11,02,15.10
2017,05,04,11,03,15.10
2017,05,04,11,04,15.10
2017,05,04,11,06,15.20
2017,05,04,11,07,15.20
2017,05,04,11,08,15.30
2017,05,04,11,09,15.30
2017,05,04,11,11,15.30
2017,05,04,11,12,15.30
2017,05,04,11,13,15.30
2017,05,04,11,14,15.30
2017,05,04,11,16,15.30
2017,05,04,11,17,15.40
2017,05,04,11,18,15.40
2017,05,04,11,19,15.40
2017,05,04,11,21,15.40
2017,05,04,11,22,15.40
2017,05,04,11,23,15.40
2017,05,04,11,24,15.40
2017,05,04,11,26,15.40
2017,05,04,11,27,15.50
2017,05,04,11,28,15.50
2017,05,04,11,29,15.50
2017,05,04,11,31,15.60
2017,05,04,11,32,15.60
2017,05,04,11,33,15.60
2017,05,04,11,34,15.70
2017,05,04,11,36,15.80
2017,05,04,11,37,15.80
2017,05,04,11,38,15.80
2017,05,04,11,39,15.80
2017,05,04,11,41,15.90
2017,05,04,11,42,15.90
2017,05,04,11,43,15.90
2017,05,04,11,44,16.10
2017,05,04,11,45,16.10
2017,05,04,11,46,16.10
2017,05,04,11,47,16.10
2017,05,04,11,48,16.10
2017,05,04,11,49,16.10
2017,05,04,11,50,16.10
2017,05,04,11,51,16.10
2017,05,04,11,52,16.10
2017,05,04,11,53,16.10
2017,05,04,11,54,16.10
2017,05,04,11,55,16.10
2017,05,04,11,56,16.10
2017,05,04,11,57,16.10
2017,05,04,11,58,16.10
2017,05,04,11,59,16.10
2017,05,04,12,00,16.10
2017,05,04,12,01,16.10
2017,05,04,12,02,16.10
2017,05,04,12,03,16.10
2017,05,04,12,04,16.10
2017,05,04,12,05,16.10
2017,05,04,12,06,16.10
2017,05,04,12,07,16.10
2017,05,04,12,08,16.10
2017,05,04,12,09,16.10
2017,05,04,12,10,16.10
2017,05,04,12,11,16.10
2017,05,04,12,12,16.10
2017,05,04,12,13,16.10
2017,05,04,12,14,16.10
2017,05,04,12,15,16.10
2017,05,04,12,16,16.10
2017,05,04,12,17,16.10
2017,05,04,12,18,16.10
2017,05,04,12,19,16.10
2017,05,04,12,20,16.10
2017,05,04,12,21,16.10
2017,05,04,12,22,16.10
2017,05,04,12,23,16.20
2017,05,04,12,24,16.20
2017,05,04,12,25,16.20
2017,05,04,12,26,16.20
2017,05,04,12,27,16.20
2017,05,04,12,28,16.30
2017,05,04,12,29,16.30
2017,05,04,12,30,16.40
2017,05,04,12,31,16.40
2017,05,04,12,32,16.40
2017,05,04,12,33,16.40
2017,05,04,12,34,16.40
2017,05,04,12,35,16.60
2017,05,04,12,36,16.60
2017,05,04,12,37,16.60
2017,05,04,12,38,16.70
2017,05,04,12,39,16.70
2017,05,04,12,40,16.70
2017,05,04,12,41,16.70
2017,05,04,12,42,16.70
2017,05,04,12,43,16.80
2017,05,04,12,44,16.90
2017,05,04,12,45,17.00
2017,05,04,12,46,17.00
2017,05,04,12,47,17.10
2017,05,04,12,48,17.10
2017,05,04,12,49,17.10
2017,05,04,12,50,17.20
2017,05,04,12,51,17.20
2017,05,04,12,52,17.20
2017,05,04,12,53,17.30
2017,05,04,12,54,17.30
2017,05,04,12,55,17.30
2017,05,04,12,56,17.30
2017,05,04,12,57,17.30
2017,05,04,12,58,17.30
2017,05,04,12,59,17.30
2017,05,04,13,00,17.30
2017,05,04,13,01,17.30
2017,05,04,13,02,17.30
2017,05,04,13,03,17.30
2017,05,04,13,04,17.30
2017,05,04,13,05,17.30
2017,05,04,13,06,17.30
2017,05,04,13,07,17.30
2017,05,04,13,08,17.30
2017,05,04,13,09,17.30
2017,05,04,13,10,17.40
2017,05,04,13,11,17.40
2017,05,04,13,12,17.40
2017,05,04,13,13,17.40
2017,05,04,13,14,17.40
2017,05,04,13,15,17.50
2017,05,04,13,16,17.50
2017,05,04,13,18,17.50
2017,05,04,13,19,17.50
2017,05,04,13,21,17.50
2017,05,04,13,22,17.40
2017,05,04,13,23,17.40
2017,05,04,13,24,17.40
2017,05,04,13,26,17.30
2017,05,04,13,27,17.40
2017,05,04,13,28,17.40
2017,05,04,13,29,17.40
2017,05,04,13,31,17.40
2017,05,04,13,32,17.40
2017,05,04,13,33,17.40
2017,05,04,13,34,17.40
2017,05,04,13,36,17.40
2017,05,04,13,37,17.50
2017,05,04,13,38,17.50
2017,05,04,13,39,17.50
2017,05,04,13,41,17.60
2017,05,04,13,42,17.60
2017,05,04,13,43,17.60
2017,05,04,13,44,17.70
2017,05,04,13,46,17.70
2017,05,04,13,47,17.70
2017,05,04,13,48,17.80
2017,05,04,13,49,17.80
2017,05,04,13,51,17.80
2017,05,04,13,52,17.90
2017,05,04,13,53,17.90
2017,05,04,13,54,17.90
2017,05,04,13,56,17.90
2017,05,04,13,57,17.90
2017,05,04,13,58,17.90
2017,05,04,13,59,17.90
2017,05,04,14,01,17.90
2017,05,04,14,02,18.10
2017,05,04,14,03,18.10
2017,05,04,14,04,18.10
2017,05,04,14,06,18.20
2017,05,04,14,07,18.20
2017,05,04,14,08,18.20
2017,05,04,14,09,18.20
2017,05,04,14,11,18.20
2017,05,04,14,12,18.20
2017,05,04,14,13,18.20
2017,05,04,14,14,18.20
2017,05,04,14,16,18.20
2017,05,04,14,17,18.20
2017,05,04,14,18,18.30
2017,05,04,14,19,18.30
2017,05,04,14,21,18.30
2017,05,04,14,22,18.30
2017,05,04,14,23,18.40
2017,05,04,14,24,18.40
2017,05,04,14,26,18.40
2017,05,04,14,27,18.40
2017,05,04,14,28,18.40
2017,05,04,14,29,18.40
2017,05,04,14,31,18.40
2017,05,04,14,32,18.40
2017,05,04,14,33,18.40
2017,05,04,14,34,18.40
2017,05,04,14,36,18.40
2017,05,04,14,37,18.40
2017,05,04,14,38,18.40
2017,05,04,14,39,18.40
2017,05,04,14,41,18.40
2017,05,04,14,42,18.40
2017,05,04,14,43,18.40
2017,05,04,14,44,18.40
2017,05,04,14,45,18.40
2017,05,04,14,46,18.40
2017,05,04,14,47,18.40
2017,05,04,14,48,18.40
2017,05,04,14,49,18.40
2017,05,04,14,50,18.40
2017,05,04,14,51,18.40
2017,05,04,14,52,18.40
2017,05,04,14,53,18.40
2017,05,04,14,54,18.50
2017,05,04,14,55,18.60
2017,05,04,14,56,18.70
2017,05,04,14,57,18.70
2017,05,04,14,58,18.80
2017,05,04,14,59,18.90
2017,05,04,15,00,19.10
2017,05,04,15,01,19.10
2017,05,04,15,02,19.10
2017,05,04,15,03,19.20
2017,05,04,15,04,19.20
2017,05,04,15,05,19.20
2017,05,04,15,06,19.20
2017,05,04,15,07,19.10
2017,05,04,15,08,19.10
2017,05,04,15,09,19.10
2017,05,04,15,10,19.10
2017,05,04,15,11,19.10
2017,05,04,15,12,19.10
2017,05,04,15,13,19.10
2017,05,04,15,14,18.90
2017,05,04,15,15,19.10
2017,05,04,15,16,19.10
2017,05,04,15,17,19.10
2017,05,04,15,18,19.10
2017,05,04,15,28,19.10
2017,05,04,15,29,19.10
2017,05,04,15,30,19.10
2017,05,04,15,31,19.10
2017,05,04,15,32,19.10
2017,05,04,15,33,19.10
2017,05,04,15,34,19.10
2017,05,04,15,36,19.30
2017,05,04,15,37,19.30
2017,05,04,15,38,19.40
2017,05,04,15,39,19.40
2017,05,04,15,40,19.40
2017,05,04,15,41,19.40
2017,05,04,15,42,19.50
2017,05,04,15,43,19.50
2017,05,04,15,44,19.50
2017,05,04,15,45,19.50
2017,05,04,15,46,19.50
2017,05,04,15,47,19.60
2017,05,04,15,48,19.70
2017,05,04,15,49,19.70
2017,05,04,15,50,19.80
2017,05,04,15,51,19.80
2017,05,04,15,52,19.90
2017,05,04,15,53,19.90
2017,05,04,15,54,19.90
2017,05,04,15,55,19.90
2017,05,04,15,56,19.90
2017,05,04,15,57,19.90
2017,05,04,15,58,19.90
2017,05,04,15,59,19.90
2017,05,04,16,00,19.90
2017,05,04,16,01,19.90
2017,05,04,16,02,19.90
2017,05,04,16,03,19.80
2017,05,04,16,04,19.80
2017,05,04,16,05,19.80
2017,05,04,16,06,19.90
2017,05,04,16,07,19.90
2017,05,04,16,08,19.90
2017,05,04,16,09,19.90
2017,05,04,16,10,19.90
2017,05,04,16,11,20.10
2017,05,04,16,12,20.20
2017,05,04,16,13,20.20
2017,05,04,16,14,20.20
2017,05,04,16,15,20.20
2017,05,04,16,16,20.20
2017,05,04,16,17,20.20
2017,05,04,16,18,20.20
2017,05,04,16,19,20.20
2017,05,04,16,20,20.20
2017,05,04,16,21,20.20
2017,05,04,16,22,20.30
2017,05,04,16,23,20.20
2017,05,04,16,24,20.20
2017,05,04,16,25,20.20
2017,05,04,16,26,20.20
2017,05,04,16,27,20.10
2017,05,04,16,28,19.90
2017,05,04,16,29,19.90
2017,05,04,16,30,19.90
2017,05,04,16,31,19.90
2017,05,04,16,32,19.80
2017,05,04,16,33,19.80
2017,05,04,16,34,19.70
2017,05,04,16,35,19.60
2017,05,04,16,36,19.50
2017,05,04,16,37,19.50
2017,05,04,16,38,19.40
2017,05,04,16,39,19.30
2017,05,04,16,40,19.10
2017,05,04,16,41,19.10
2017,05,04,16,42,18.90
2017,05,04,16,43,18.90
2017,05,04,16,44,18.70
2017,05,04,16,45,18.60
2017,05,04,16,46,18.50
2017,05,04,16,47,18.40
2017,05,04,16,48,18.40
2017,05,04,16,49,18.30
2017,05,04,16,50,18.20
2017,05,04,16,51,18.20
2017,05,04,16,53,18.10
2017,05,04,16,54,18.10
2017,05,04,16,56,17.90
2017,05,04,16,57,17.90
2017,05,04,16,58,17.90
2017,05,04,16,59,17.90
2017,05,04,17,01,17.90
2017,05,04,17,02,17.90
2017,05,04,17,03,17.90
2017,05,04,17,04,17.90
2017,05,04,17,06,17.90
2017,05,04,17,07,17.90
2017,05,04,17,08,17.90
2017,05,04,17,09,18.10
2017,05,04,17,11,18.10
2017,05,04,17,12,18.10
2017,05,04,17,13,18.10
2017,05,04,17,14,18.10
2017,05,04,17,16,18.10
2017,05,04,17,17,18.10
2017,05,04,17,18,18.10
2017,05,04,17,19,18.10
2017,05,04,17,21,18.10
2017,05,04,17,22,18.10
2017,05,04,17,23,18.10
2017,05,04,17,24,18.10
2017,05,04,17,26,17.90
2017,05,04,17,27,17.90
2017,05,04,17,28,17.90
2017,05,04,17,29,17.90
2017,05,04,17,31,17.90
2017,05,04,17,32,17.90
2017,05,04,17,33,17.90
2017,05,04,17,34,17.90
2017,05,04,17,36,17.90
2017,05,04,17,37,17.90
2017,05,04,17,38,17.70
2017,05,04,17,39,17.50
2017,05,04,17,41,17.20
2017,05,04,17,42,16.90
2017,05,04,17,43,16.70
2017,05,04,17,44,16.60
2017,05,04,17,46,16.20
2017,05,04,17,47,16.10
2017,05,04,17,48,15.90
2017,05,04,17,49,15.80
2017,05,04,17,51,15.70
2017,05,04,17,52,15.60
2017,05,04,17,53,15.50
2017,05,04,17,54,15.50
2017,05,04,17,56,15.30
2017,05,04,17,57,15.30
2017,05,04,17,58,15.30
2017,05,04,17,59,15.30
2017,05,04,18,01,15.20
2017,05,04,18,02,15.10
2017,05,04,18,03,15.10
2017,05,04,18,04,15.10
2017,05,04,18,06,15.10
2017,05,04,18,07,15.10
2017,05,04,18,08,15.00
2017,05,04,18,09,15.00
2017,05,04,18,11,15.00
2017,05,04,18,12,15.00
2017,05,04,18,13,15.00
2017,05,04,18,14,15.00
2017,05,04,18,15,14.90
2017,05,04,18,16,14.90
2017,05,04,18,17,14.90
2017,05,04,18,18,14.90
2017,05,04,18,19,14.90
2017,05,04,18,20,14.90
2017,05,04,18,21,14.80
2017,05,04,18,22,14.80
2017,05,04,18,23,14.80
2017,05,04,18,24,14.80
2017,05,04,18,25,14.70
2017,05,04,18,26,14.70
2017,05,04,18,27,14.70
2017,05,04,18,28,14.70
2017,05,04,18,29,14.70
2017,05,04,18,30,14.70
2017,05,04,18,31,14.70
2017,05,04,18,32,14.70
2017,05,04,18,33,14.60
2017,05,04,18,34,14.70
2017,05,04,18,35,14.70
2017,05,04,18,36,14.70
2017,05,04,18,37,14.70
2017,05,04,18,38,14.70
2017,05,04,18,39,14.70
2017,05,04,18,40,14.80
2017,05,04,18,41,14.80
2017,05,04,18,42,14.80
2017,05,04,18,43,14.80
2017,05,04,18,44,14.80
2017,05,04,18,45,14.80
2017,05,04,18,46,14.90
2017,05,04,18,47,14.90
2017,05,04,18,48,14.90
2017,05,04,18,49,14.90
2017,05,04,18,50,14.90
2017,05,04,18,51,15.00
2017,05,04,18,52,15.00
2017,05,04,18,53,15.00
2017,05,04,18,54,15.00
2017,05,04,18,55,15.10
2017,05,04,18,56,15.10
2017,05,04,18,57,15.20
2017,05,04,18,58,15.20
2017,05,04,18,59,15.30
2017,05,04,19,00,15.30
2017,05,04,19,01,15.30
2017,05,04,19,02,15.30
2017,05,04,19,03,15.30
2017,05,04,19,04,15.30
2017,05,04,19,05,15.40
2017,05,04,19,06,15.40
2017,05,04,19,07,15.50
2017,05,04,19,08,15.50
2017,05,04,19,09,15.50
2017,05,04,19,10,15.50
2017,05,04,19,11,15.60
2017,05,04,19,12,15.60
2017,05,04,19,13,15.60
2017,05,04,19,14,15.60
2017,05,04,19,15,15.60
2017,05,04,19,16,15.60
2017,05,04,19,17,15.60
2017,05,04,19,18,15.60
2017,05,04,19,19,15.50
2017,05,04,19,20,15.50
2017,05,04,19,21,15.40
2017,05,04,19,22,15.30
2017,05,04,19,23,15.30
2017,05,04,19,24,15.20
2017,05,04,19,25,15.10
2017,05,04,19,26,15.00